Regional Weather Roundup
Issued by NWS Memphis, TN

Home | Current Version | Previous Version | Text Only | Print | Product List | Glossary On
Versions: 1 2 3 4 5 6 7 8 9 10 11 12 13 14 15 16 17 18 19 20 21 22 23 24 25 26 27 28 29 30 31 32 33 34 35 36 37 38 39 40 41 42 43 44 45 46 47 48 49 50
000
ASUS44 KMEG 310910
RWRMEG
MEMPHIS CWA HOURLY WEATHER ROUNDUP
NATIONAL WEATHER SERVICE MEMPHIS TN
400 AM CDT FRI JUL 31 2015

...WEST TENNESSEE...

CITY           SKY/WX    TMP DP  RH WIND       PRES   REMARKS
MEMPHIS INTL   PTCLDY    74  63  68 N7        30.07S
NWS MEMPHIS      N/A     69 N/A N/A MISG        N/A
JACKSON        PTCLDY    66  62  87 CALM      30.08R
LEXINGTON      CLEAR     64  64 100 N3        30.06S
DYERSBURG        N/A    N/A N/A N/A MISG        N/A
PARIS          CLEAR     63  61  94 CALM      30.09S


...EASTERN ARKANSAS...

CITY           SKY/WX    TMP DP  RH WIND       PRES   REMARKS
JONESBORO      CLEAR     72  65  78 N7        30.09S
WEST MEMPHIS   CLEAR     67  67 100 NW3       30.07S
BATESVILLE     CLEAR     68  64  88 W3        30.12S
NEWPORT        CLEAR     69  67  93 N5        30.11R
WALNUT RIDGE   CLEAR     68  63  83 NW5       30.10R
BLYTHEVILLE    CLEAR     67  66  97 N3        30.08S
SEARCY         MOCLDY    70  64  81 N5        30.11S
STUTTGART      CLEAR     70  63  78 MISG      30.08R
PINE BLUFF     CLEAR     72  65  78 N6        30.08S
MONTICELLO     CLEAR     71  67  87 CALM      30.05F


...NORTH MISSISSIPPI...

CITY           SKY/WX    TMP DP  RH WIND       PRES   REMARKS
TUPELO         CLEAR     68  63  84 NE7       30.04R
OLIVE BRANCH     N/A     70  66  88 N3        30.08S
TUNICA         PTCLDY    68  64  88 N5        30.07F
CLARKSDALE     PTCLDY    68  68 100 N6        30.07S
CORINTH          N/A     64  63  94 CALM      30.05R
GREENWOOD      PTCLDY    68  64  87 CALM      30.04R
COLUMBUS       CLEAR     69  64  85 N7        30.01R
STARKVILLE     FAIR      68  63  83 CALM      30.02R
GOLDEN TRIANGL CLEAR     70  63  78 N8        30.00S


...SOUTHEAST MISSOURI...

CITY           SKY/WX    TMP DP  RH WIND       PRES   REMARKS
WEST PLAINS    CLEAR     66  60  81 NW3       30.17S
POPLAR BLUFF   CLEAR     67  64  90 NW5       30.09S
CAPE GIRARDEAU CLEAR     65  64  97 CALM      30.09S


...NORTHWEST ALABAMA...

CITY           SKY/WX    TMP DP  RH WIND       PRES   REMARKS
MUSCLE SHOALS  CLEAR     73  59  61 VRB3      30.05R


...MIDDLE TENNESSEE...

CITY           SKY/WX    TMP DP  RH WIND       PRES   REMARKS
NASHVILLE      CLEAR     69  63  81 N3        30.07S
CLARKSVILLE    CLEAR     65  63  93 W3        30.07S
COLUMBIA       CLEAR     64  64 100 CALM      30.05S


...WESTERN KENTUCKY...

CITY           SKY/WX    TMP DP  RH WIND       PRES   REMARKS
PADUCAH        CLEAR     66  64  93 CALM      30.08R
FORT CAMPBELL  CLEAR     67  64  89 NW2       30.07S


...CENTRAL ARKANSAS...

CITY           SKY/WX    TMP DP  RH WIND       PRES   REMARKS
LITTLE ROCK    PTCLDY    74  62  66 NE3       30.09S


SKY/WX REPORTED AS FAIR MEANS FEW OR NO CLOUDS BELOW
12 THOUSAND FEET.



USA.gov is the U.S. government's official web portal to all federal, state and local government web resources and services.